星链-34951 (STARLINK-34951)

导读

STARLINK-34951是美国SpaceX星链星座的卫星,于2025年8月22日发射,归属美国。星链是SpaceX打造的低轨卫星互联网星座,旨在为全球提供高速卫星互联网接入服务,该卫星加入后将进一步扩充星链星座规模,提升全球网络覆盖能力与服务容量。

Basic Information
目录编号:
65293
目录名称:
STARLINK-34951
国际标识:
2025-184W
轨道中心:
EARTH
卫星名称:
星链-34951
卫星全名:
星链-34951 (STARLINK-34951)
卫星状态:
在轨 (已飞行295 天)
发射日期:
2025-08-22 UTC
国别 :
美国 (US)
星等 :
--
Orbit Information
数据来源 国际轨道数据 AOE轨道数据
星历时间 2026-06-13T11:34:12+0800
14小时前
查看轨道信息
2026-06-12T23:00:00+0800
1天前
查看轨道信息
半长轴 6927.677km 6927.604km
偏心率 0.000058 0.0001476
轨道倾角 97.370° 97.374°
近地点辐角 47.335° 108.159°
升交点赤经 215.890° 215.389°
平近点角 312.793° 294.933°
近地点 549.138km 548.444km
远地点 549.942km 550.49km
周期 95.640分钟 95.639分钟
每日圈数 15.056406 15.056645
Detailed Information
固有亮度:
5
最大亮度:
2.5
卫星平台:
Starlink V1.0
覆盖范围:
全球
运营商:
太空探索技术公司
运营商所在国:
美国
制造商(研发单位):
太空探索技术公司
制造商所在国:
美国
使用方式:
暂无
Satellite Introduction
Starlink 计划是 SpaceX 推出的全球卫星互联网项目,通过发射低轨道卫星,为全球尤其是偏远地区提供高速、低延迟的互联网服务。自 2019 年起,Starlink 已部署数千颗卫星,旨在缩小全球数字鸿沟,推动互联网普及。该项目还为军事、航空等行业提供通信支持,带来广泛经济效益。
2D Orbit Map
3D Orbit Map
Orbit Altitude Analysis Chart
Orbit Inclination Analysis Chart
Orbit Comprehensive Analysis Chart
View Comprehensive Chart